Printer-friendly version
Follow the MPC on Twitter Follow the MPC on Facebook The MPC blog
Minor Planet Center

MPEC 2005-W32 : 2005 WX

The following Minor Planet Electronic Circular may be linked-to from your own Web pages, but must not otherwise be redistributed electronically.

A form allowing access to any MPEC is at the bottom of this page.


Read MPEC 2005-W31 Read MPEC 2005-W33


M.P.E.C. 2005-W32                                Issued 2005 Nov. 22, 05:46 UT

     The Minor Planet Electronic Circulars contain information on unusual
         minor planets and routine data on comets.  They are published
   on behalf of Commission 20 of the International Astronomical Union by the
          Minor Planet Center, Smithsonian Astrophysical Observatory,
                          Cambridge, MA 02138, U.S.A.

                  Supported in part by the Brinson Foundation
                  Supported in part by the TABASGO Foundation
             Prepared using the Tamkin Foundation Computer Network

                              MPC@CFA.HARVARD.EDU
          URL http://cfa-www.harvard.edu/iau/mpc.html  ISSN 1523-6714

                                    2005 WX

Observations:
     K05W00X* C2005 11 21.16323 00 28 39.39 +30 45 13.3          18.7 V EW032703
     K05W00X  C2005 11 21.16978 00 28 57.32 +30 45 51.4          19.0 V EW032703
     K05W00X  C2005 11 21.17633 00 29 15.00 +30 46 27.5          18.8 V EW032703
     K05W00X  C2005 11 21.18285 00 29 33.03 +30 47 05.3          18.5 V EW032703
     K05W00X  C2005 11 21.22991 00 31 43.19 +30 51 10.2          18.7 V EW032703
     K05W00X  C2005 11 21.23078 00 31 45.79 +30 51 16.3          18.7 V EW032703
     K05W00X  C2005 11 21.23165 00 31 48.31 +30 51 19.4          18.7 V EW032703
     K05W00X  C2005 11 21.23252 00 31 51.05 +30 51 23.6          18.8 V EW032703
     K05W00X  C2005 11 21.27165 00 33 42.94 +30 54 25.1          18.5 V EW032703
     K05W00X  C2005 11 21.27252 00 33 45.90 +30 54 26.9          18.5 V EW032703
     K05W00X  C2005 11 21.27339 00 33 47.92 +30 54 29.8          18.4 V EW032703
     K05W00X  C2005 11 21.27426 00 33 50.38 +30 54 33.6          18.5 V EW032703
     K05W00X  C2005 11 21.28077 00 34 09.47 +30 55 01.3          18.5 V EW032703
     K05W00X  C2005 11 21.28130 00 34 10.64 +30 55 04.4          18.5 V EW032703
     K05W00X  C2005 11 21.28184 00 34 12.52 +30 55 06.4          18.4 V EW032703
     K05W00X  C2005 11 21.28236 00 34 14.02 +30 55 08.6          18.8 V EW032703
     K05W00X  C2005 11 21.31101 00 35 38.96 +30 57 03.6          18.5 V EW032703
     K05W00X  C2005 11 21.31189 00 35 41.34 +30 57 06.1          18.5 V EW032703
     K05W00X  C2005 11 21.31275 00 35 44.20 +30 57 09.3          18.4 V EW032703
     K05W00X  C2005 11 21.31365 00 35 46.41 +30 57 13.8          18.8 V EW032703
     K05W00X  C2005 11 21.31479 00 35 50.35 +30 57 18.2          18.3 V EW032703
     K05W00X  C2005 11 21.31535 00 35 51.93 +30 57 17.7          17.5 V EW032703
     K05W00X  C2005 11 21.31589 00 35 53.59 +30 57 21.8          18.4 V EW032703
     K05W00X  C2005 11 21.31641 00 35 55.24 +30 57 24.5          18.8 V EW032703
     K05W00X  C2005 11 21.99970 01 17 53.65 +31 39 36.2          18.0 V EW032595
     K05W00X  C2005 11 22.00144 01 18 00.76 +31 39 36.5                 EW032595
     K05W00X  C2005 11 22.16704 01 30 31.61 +31 46 55.2          18.1 R EW032734
     K05W00X  C2005 11 22.16800 01 30 35.42 +31 46 57.9          17.5 R EW032734
     K05W00X  C2005 11 22.17194 01 30 51.75 +31 46 58.0          18.1 R EW032734
     K05W00X  C2005 11 22.18491 01 31 59.80 +31 48 42.0          17.9 V EW032703
     K05W00X  C2005 11 22.18543 01 32 02.00 +31 48 42.0          18.0 V EW032703
     K05W00X  C2005 11 22.18596 01 32 04.16 +31 48 42.1          17.9 V EW032703
     K05W00X  C2005 11 22.18648 01 32 06.25 +31 48 42.8          18.1 V EW032703

Observer details:
595 Farra d'Isonzo.  Observer E. Pettarin.  0.40-m f/4.5 reflector + CCD.
703 Catalina Sky Survey.  Observer R. Hill.  Measurers E. C. Beshore,
    E. J. Christensen, G. J. Garradd, A. D. Grauer, R. E. Hill, R. A. Kowalski,
    S. M. Larson, R. H. McNaught.  0.68-m Schmidt + CCD.
734 Farpoint Observatory.  Observer G. Hug.  0.7-m reflector + CCD.

Orbital elements:
2005 WX
Epoch 2006 Mar. 6.0 TT = JDT 2453800.5                  MPC
M  49.82973              (2000.0)            P               Q
n   0.49050718     Peri.  180.11247     +0.46555444     -0.88241186
a   1.5923522      Node   242.14175     +0.81204923     +0.45641023
e   0.3746104      Incl.    4.40372     +0.35190215     +0.11418851
P   2.01           H   26.6           G   0.15           U   3
Residuals in seconds of arc
051121 703  1.2-  0.4+    051121 703  0.5+  0.4-    051121 703  1.1-  0.7-
051121 703  0.7+  0.6+    051121 703  1.7+  0.4-    051121 703  0.1-  0.0
051121 703  1.4-  0.7-    051121 703 (3.2-  0.4+)   051121 595 (2.6-  0.8+)
051121 703  1.3+  0.6+    051121 703  0.7+  0.2+    051122 595  1.0-  0.6+
051121 703 (3.5-  0.2-)   051121 703  0.4+  0.2+    051122 734  0.7+  1.1-
051121 703  1.5-  1.6+    051121 703  0.3-  0.2-    051122 734  1.1-  1.3+
051121 703  0.6-  0.5+    051121 703 (3.7-  1.1-)   051122 734  0.4+  0.3+
051121 703 (3.1+  0.4+)   051121 703  0.2-  1.2-    051122 703  0.2-  0.1+
051121 703 (2.4+  2.3+)   051121 703 (6.6-  0.2-)   051122 703  0.6+  0.2-
051121 703 (8.0+  0.4+)   051121 703  0.1-  0.1-    051122 703  0.3+  0.4-
051121 703  1.5+  0.5-    051121 703 (1.5-  2.8-)   051122 703  0.3-  0.1+

Ephemeris:
2005 WX                  a,e,i = 1.59, 0.37, 4                   q = 0.9958
Date    TT    R. A. (2000) Decl.     Delta      r     Elong.  Phase     V
2005 11 16.0  22 34.09   +23 36.5    0.0260   0.999   112.7    65.9    21.0
2005 11 16.5  22 38.86   +24 02.9    0.0245   0.999   113.4    65.3    20.9
2005 11 17.0  22 44.29   +24 32.1    0.0230   0.998   114.3    64.5    20.7
2005 11 17.5  22 50.53   +25 04.3    0.0216   0.998   115.4    63.5    20.5
2005 11 18.0  22 57.76   +25 40.0    0.0201   0.998   116.7    62.3    20.3
2005 11 18.5  23 06.19   +26 19.5    0.0187   0.997   118.2    60.8    20.1
2005 11 19.0  23 16.14   +27 03.0    0.0173   0.997   120.1    59.0    19.9
2005 11 19.5  23 27.98   +27 50.7    0.0160   0.997   122.4    56.8    19.7
2005 11 20.0  23 42.22   +28 42.1    0.0147   0.997   125.2    54.1    19.4
2005 11 20.5  23 59.53   +29 35.9    0.0134   0.996   128.6    50.8    19.1
2005 11 21.0  00 20.72   +30 29.1    0.0122   0.996   132.8    46.7    18.8
2005 11 21.5  00 46.74   +31 15.8    0.0111   0.996   137.9    41.6    18.4
2005 11 22.0  01 18.51   +31 45.3    0.0102   0.996   144.2    35.5    18.1
2005 11 22.5  01 56.50   +31 41.6    0.00936  0.996   151.7    28.1    17.7
2005 11 23.0  02 40.03   +30 44.8    0.00878  0.996   160.3    19.5    17.3
2005 11 23.5  03 26.76   +28 40.1    0.00846  0.996   169.3    10.6    16.9
2005 11 24.0  04 13.07   +25 29.3    0.00843  0.996   174.0     6.0    16.7
2005 11 24.5  04 55.51   +21 34.2    0.00870  0.996   167.2    12.7    17.0
2005 11 25.0  05 32.12   +17 26.2    0.00923  0.996   158.6    21.2    17.5
2005 11 25.5  06 02.56   +13 30.7    0.00999  0.996   151.0    28.7    17.9
2005 11 26.0  06 27.43   +10 01.5    0.0109   0.996   144.5    35.1    18.2
2005 11 26.5  06 47.69   +07 02.2    0.0120   0.996   139.2    40.3    18.6
2005 11 27.0  07 04.25   +04 31.1    0.0132   0.996   134.9    44.6    18.9
2005 11 27.5  07 17.91   +02 24.6    0.0144   0.996   131.4    48.0    19.2
2005 11 28.0  07 29.29   +00 38.4    0.0157   0.996   128.5    50.8    19.5
2005 11 28.5  07 38.86   -00 51.2    0.0171   0.997   126.1    53.1    19.7
2005 11 29.0  07 46.99   -02 07.2    0.0185   0.997   124.2    55.0    19.9
2005 11 29.5  07 53.95   -03 12.2    0.0199   0.997   122.6    56.5    20.1
2005 11 30.0  07 59.98   -04 08.2    0.0213   0.997   121.3    57.7    20.3
2005 11 30.5  08 05.23   -04 56.8    0.0228   0.998   120.2    58.7    20.5
2005 12 01.0  08 09.83   -05 39.3    0.0242   0.998   119.3    59.5    20.7
2005 12 01.5  08 13.90   -06 16.5    0.0257   0.999   118.5    60.2    20.8
2005 12 02.0  08 17.51   -06 49.5    0.0272   0.999   117.9    60.7    20.9
2005 12 02.5  08 20.73   -07 18.7    0.0287   0.999   117.4    61.1    21.1
2005 12 03.0  08 23.61   -07 44.8    0.0302   1.000   117.0    61.4    21.2
2005 12 03.5  08 26.21   -08 08.2    0.0317   1.000   116.7    61.7    21.3
2005 12 04.0  08 28.56   -08 29.2    0.0332   1.001   116.5    61.8    21.4
2005 12 04.5  08 30.69   -08 48.2    0.0347   1.001   116.3    61.9    21.5
2005 12 05.0  08 32.62   -09 05.4    0.0362   1.002   116.2    62.0    21.6
2005 12 05.5  08 34.39   -09 21.0    0.0377   1.003   116.1    62.0    21.7
2005 12 06.0  08 36.00   -09 35.2    0.0392   1.003   116.1    61.9    21.8
2005 12 06.5  08 37.48   -09 48.1    0.0408   1.004   116.1    61.8    21.9
2005 12 07.0  08 38.84   -09 59.9    0.0423   1.005   116.1    61.7    21.9
2005 12 07.5  08 40.08   -10 10.6    0.0438   1.005   116.2    61.5    22.0
2005 12 08.0  08 41.23   -10 20.5    0.0453   1.006   116.3    61.4    22.1

Gareth V. Williams           (C) Copyright 2005 MPC           M.P.E.C. 2005-W32

Read MPEC 2005-W31 Read MPEC 2005-W33


MPEC number:

Enter an MPEC number in one of the following forms:

  • 1997-B01 (the full form)
  • J97B01 (the packed version of the full form)
  • B01 (the abbreviated form)

Valid HTML 4.01!